This is the latest recevied weather packets stored in our database for station/object KM4CNW. If no packets are shown the sender has not sent any weather packets the latest 1 day(s).
| Time | Temp. | Humidity | Pressure | Rain* | Wind** | Luminosity | Snow |
|---|---|---|---|---|---|---|---|
| 1778001584 | 25.56° C | 32% | 1009.9 hPa | 0 mm | 1.34 m/s, 316° | 899 W/m² | - |
| 1778001281 | 25.56° C | 33% | 1010.2 hPa | 0 mm | 1.34 m/s, 152° | 883 W/m² | - |
| 1778000978 | 25.56° C | 33% | 1010.2 hPa | 0 mm | 2.68 m/s, 280° | 900 W/m² | - |
| 1778000675 | 25.56° C | 34% | 1010.4 hPa | 0 mm | 1.34 m/s, 253° | 862 W/m² | - |
| 1778000370 | 25.56° C | 36% | 1010.2 hPa | 0 mm | 0.45 m/s, 280° | 707 W/m² | - |
| 1778000066 | 25.56° C | 34% | 1010.3 hPa | 0 mm | 1.34 m/s, 176° | 613 W/m² | - |
| 1777999761 | 25° C | 36% | 1010.5 hPa | 0 mm | 0.89 m/s, 251° | 646 W/m² | - |
| 1777999459 | 25° C | 36% | 1010.3 hPa | 0 mm | 0.89 m/s, 326° | 684 W/m² | - |
| 1777999156 | 25° C | 37% | 1010.5 hPa | 0 mm | 1.79 m/s, 325° | 707 W/m² | - |
| 1777998855 | 25° C | 37% | 1010.8 hPa | 0 mm | 0.89 m/s, 278° | 723 W/m² | - |
| 1777998554 | 25° C | 37% | 1010.8 hPa | 0 mm | 2.24 m/s, 147° | 694 W/m² | - |
| 1777998249 | 25° C | 38% | 1010.7 hPa | 0 mm | 0.45 m/s, 188° | 685 W/m² | - |
| 1777997946 | 25° C | 38% | 1010.7 hPa | 0 mm | 1.79 m/s, 317° | 739 W/m² | - |
| 1777997643 | 25.56° C | 37% | 1010.6 hPa | 0 mm | 0.45 m/s, 176° | 736 W/m² | - |
| 1777997340 | 25° C | 39% | 1010.6 hPa | 0 mm | 0.89 m/s, 251° | 752 W/m² | - |
| 1777997039 | 24.44° C | 40% | 1010.7 hPa | 0 mm | 1.34 m/s, 243° | 761 W/m² | - |
| 1777996735 | 25° C | 41% | 1010.7 hPa | 0 mm | 2.24 m/s, 321° | 784 W/m² | - |
| 1777996431 | 25° C | 40% | 1010.9 hPa | 0 mm | 1.34 m/s, 74° | 775 W/m² | - |
| 1777996128 | 24.44° C | 42% | 1010.8 hPa | 0 mm | 0.45 m/s, 276° | 788 W/m² | - |
| 1777995824 | 24.44° C | 42% | 1010.8 hPa | 0 mm | 0.45 m/s, 205° | 797 W/m² | - |
| 1777995520 | 23.89° C | 43% | 1010.9 hPa | 0 mm | 0.89 m/s, 200° | 783 W/m² | - |
| 1777995217 | 24.44° C | 43% | 1010.9 hPa | 0 mm | 1.34 m/s, 155° | 793 W/m² | - |
| 1777994915 | 24.44° C | 42% | 1010.8 hPa | 0 mm | 0 m/s | 788 W/m² | - |
| 1777994612 | 23.89° C | 44% | 1010.8 hPa | 0 mm | 0.45 m/s, 258° | 777 W/m² | - |
| 1777994311 | 23.89° C | 43% | 1011.1 hPa | 0 mm | 0 m/s | 765 W/m² | - |
* Rain latest hour (hover to see other rain measurements)
** Current wind speed in m/s (hover to see current wind gust speed)